Flag for U.S.A. Weather past 2 weeks in Boca Raton, Florida, U.S.A.

85 °F

Scattered clouds.

Feels Like: 92 °F
Forecast: 75 / 86 °F
Wind: 9 mph from Northeast

Location: Pompano Beach - Pompano Beach Airpark

Current Time: Oct 8, 2015 at 4:42:39 PM

Latest Report: Oct 8, 2015 at 3:53 PM

Visibility: 10 mi

Pressure: 29.95 "Hg

Humidity: 68%

Dew point: 73 °F

Location of Boca RatonLocation

Historic Weather in Boca Raton — Graph


Boca Raton temperature yesterday

Maximum temperature yesterday: 85 °F (at 11:53 AM)
Minimum temperature yesterday: 74 °F (at 11:53 PM)
Average temperature yesterday: 79 °F

Past Weeks' High & Low Weather Summary

High91 °F (Sep 30, 3:53 PM)100% (Sep 30, 1:53 AM)30.03 "Hg (Sep 30, 1:53 AM)
Low70 °F (Oct 4, 6:53 AM)41% (Oct 3, 2:53 PM)29.50 "Hg (Oct 2, 3:53 PM)
Average81 °F77%29.82 "Hg
* Reported Sep 23 2:01 PM — Oct 8 2:53 PM, Boca Raton, Weather by CustomWeather, © 2015

Note: Actual official high and low records may vary slightly from our data, if they occured in-between our weather recording intervals... More about our weather records


Boca Raton weather history for previous 24 hours

Time TempWeatherWind HumidityBarometerVisibility
2:53 PM
Thu, Oct 8
85 °FSunny.8 mph68%29.96 "Hg10 mi
1:53 PM85 °FScattered clouds.8 mph65%29.98 "Hg10 mi
12:53 PM85 °FScattered clouds.8 mph68%30.00 "Hg10 mi
11:53 AM84 °FScattered clouds.6 mph72%30.02 "Hg10 mi
10:53 AM83 °FScattered clouds.5 mph70%30.03 "Hg10 mi
9:53 AM78 °FSunny.No wind87%30.02 "Hg10 mi
8:53 AM74 °FSunny.3 mph100%30.01 "Hg10 mi
7:53 AM74 °FOvercast.No wind100%29.99 "Hg8 mi
6:53 AM73 °FOvercast.No wind100%29.98 "Hg9 mi
5:53 AM74 °FPassing clouds.5 mph97%29.95 "Hg10 mi
4:53 AM74 °FPassing clouds.3 mph100%29.95 "Hg9 mi
3:53 AM73 °FPartly cloudy.3 mph100%29.96 "Hg10 mi
2:53 AM73 °FLight rain. Partly cloudy.5 mph97%29.96 "Hg10 mi
2:00 AM73 °FRain. Fog.3 mph94%29.98 "Hg4 mi
1:53 AM73 °FRain. Fog.5 mph97%29.98 "Hg3 mi
12:53 AM75 °FLight rain. Fog.3 mph96%29.98 "Hg6 mi
12:04 AM74 °FThunderstorms. Overcast.7 mph94%29.99 "Hg8 mi
11:53 PM
Wed, Oct 7
74 °FThunderstorms. Mostly cloudy.14 mph94%29.99 "Hg7 mi
10:53 PM76 °FMostly cloudy.8 mph94%29.99 "Hg10 mi
9:53 PM77 °FPassing clouds.No wind94%29.98 "Hg10 mi
8:53 PM75 °FLight rain. Passing clouds.No wind94%29.97 "Hg10 mi
7:53 PM75 °FRain. Mostly cloudy.8 mph90%29.96 "Hg7 mi
6:58 PM76 °FHeavy rain. Fog.6 mph94%29.95 "Hg0 mi
6:01 PM77 °FLight rain. Partly sunny.16 mph85%29.93 "Hg2 mi
4:53 PM83 °FPassing clouds.10 mph70%29.93 "Hg10 mi
Weather by CustomWeather, © 2015

See weather overviewHow to use our weather pages